Weather in Mulym'ya

Russia / Khanty-Mansi Autonomous Okrug — Yugra     60°11′48″N   64°32′09″E
temp.,
°C
wind,
m/s
gust,
m/s
humid.,
%
clouds,
%
prec.,
mm/h
press.,
hPa
HPBL,
m
6 march, sat
sat623:00−10ne2396100 0.6 99546
02:00−11n229698 0.3 99529
05:00−11nnw249699 0.8 997109
08:00−12nw2496100 0.4 997100
11:00−10wnw3493100 0.6 998270
14:00−8wnw3491100 0.3 999445
17:00−8wnw2395100 0.9 1001291
20:00−10wnw2296100 0.8 100247
7 march, sun
sun723:00−12nw4795100 0.9 1004197
02:00−17nw478989 0.1 1005133
05:00−22wnw338644 0.1 100721
08:00−23wsw128720 0.0 100820
11:00−17ssw249021 0.0 1010239
14:00−13ssw237821 0.0 1009496
17:00−13ese119250 0.0 100922
20:00−15ese2296100 0.1 100821
8 march, mon
mon823:00−17ese1198100 0.1 100820
02:00−19nne2210090 0.1 100720
05:00−19nne239995 0.1 100626
08:00−22n2310097 0.1 100627
11:00−18nnw229397 0.1 1006228
14:00−15nw228697 0.0 1006370
17:00−16nne119096 0.0 100620
20:00−19ese119395 0.0 100720
9 march, tue
tue923:00−19ese239297 0.0 100824
02:00−18ese3496100 0.0 100794
05:00−18ese3697100 0.1 1007146
08:00−19e469989 0.1 100696
11:00−15e589694 0.1 1004293
14:00−12e71194100 0.1 1000435
17:00−10e71194100 1.4 997593
20:00−11ne71194100 2.2 996497
10 march, wed
wed1023:00−15n61195100 2.7 998418
02:00−17nnw5995100 0.4 1002429
05:00−22nnw359792 0.5 100687
08:00−25nw349788 0.0 100895
11:00−22nnw239365 0.0 1009233
14:00−19nw228897 0.0 1010335
17:00−19nnw119399 0.0 100957
20:00−24sw0010089 0.0 100920